SCP
0 0 0 0 0 0 0 0 0 0 0 0 0 0 0 0 0 0 0 0 0 0
0 0 0 0 0 0 0 0 0 0 0 0 0 0 0 0 0 0 0 0 0 0
0 0 0 0 0 0 0 0 0 0 0 0 0 0 0 0 0 0 0 0 0 0
0 0 0 0 0 0 0 0 0 0 0 0 0 0 0 0 0 0 0 0 0 0
0 0 0 0 0 0 0 0 0 0 0 0 0 0 0 0 0 0 0 0 0 0
0 0 0 0 0 0 0 0 0 0 0 0 0 0 0 0 0 0 0 0 0 0
0 0 0 0 0 0 0 0 0 0 0 0 0 0 0 0 0 0 0 0 0 0
0 0 0 0 0 0 0 0 0 0 0 0 0 0 0 0 0 0 0 0 0 0
0 0 0 0 0 0 0 0 0 0 0 0 0 0 0 0 0 0 0 0 0 0
0 0 0 0 0 0 0 0 0 0 0 0 0 0 0 0 0 0 0 0 0 0
0 0 0 0 0 0 0 0 0 0 0 0 0 0 0 0 0 0 0 0 0 0
0 0 0 0 0 0 0 0 0 0 0 0 0 0 0 0 0 0 0 0 0 0
0 0 0 0 0 0 0 0 0 0 0 0 0 0 0 0 0 0 0 0 0 0
0 0 0 0 0 0 0 0 0 0 0 0 0 0 0 0 0 0 0 0 0 0
Wind_Speed_500mb
18 26 30 36 41 37 36 35 38 42 43 50 50 46 46 43 39 42 47 51 57 65
28 30 32 35 35 37 35 34 38 41 46 49 50 49 44 42 40 38 42 49 56 65
31 30 29 29 31 33 37 40 44 49 50 51 55 54 51 47 41 42 46 49 54 59
31 29 29 34 37 44 49 52 53 50 53 54 53 53 50 51 53 54 51 51 57 58
37 41 46 46 49 54 57 57 60 56 51 50 51 52 54 53 49 48 49 50 52 59
37 39 44 50 53 58 60 64 63 59 57 51 52 52 53 55 52 52 50 49 55 49
46 51 52 59 62 65 65 63 63 67 67 59 63 59 54 54 55 54 57 57 55 58
52 55 62 67 70 71 71 69 70 71 65 69 73 65 56 58 61 62 61 60 55 60
59 66 69 71 74 73 75 75 75 75 74 71 69 63 57 59 65 65 64 61 53 57
72 75 79 82 81 83 85 81 78 78 78 78 73 74 66 70 67 66 62 55 49 45
76 80 81 78 78 78 74 81 85 86 84 83 82 77 75 65 63 62 64 54 53 56
64 68 69 69 69 70 75 80 82 81 82 82 81 78 74 73 71 63 63 55 58 62
93 99 104 104 104 103 100 97 90 88 83 82 82 76 72 73 77 70 61 50 49 57
111 110 109 104 93 85 81 80 78 77 84 88 84 82 85 86 70 68 55 56 45 46
Wind_Direction_500mb
278 283 284 293 299 295 295 302 308 307 306 314 318 316 307 302 304 303 298 296 288 282
283 278 275 280 282 284 284 287 293 294 300 308 313 313 315 314 306 299 294 293 285 282
264 261 262 267 271 276 284 293 300 303 306 309 310 304 298 300 312 312 294 290 292 283
255 261 269 275 281 288 294 298 304 303 307 308 311 307 307 304 298 300 306 290 286 289
276 282 282 283 288 290 292 292 296 299 305 307 308 310 311 310 315 308 308 302 295 284
288 282 278 283 287 290 292 293 293 292 298 303 312 310 311 310 311 316 307 311 303 296
275 273 276 283 283 286 288 289 289 291 293 297 304 304 303 304 307 305 307 294 301 300
275 279 281 278 281 282 280 278 281 285 283 287 295 295 292 294 295 298 299 300 291 298
280 282 282 282 281 278 275 278 280 278 282 282 282 280 289 290 287 289 291 295 286 291
286 286 285 284 282 279 280 281 277 276 279 281 280 278 290 294 277 281 281 285 281 287
289 283 280 280 278 277 279 279 277 277 277 278 278 276 283 295 277 278 272 274 274 274
287 286 286 285 284 282 278 273 269 273 276 274 272 272 275 288 289 274 271 264 262 271
293 293 291 289 287 284 280 277 275 273 266 263 266 266 270 275 286 265 268 258 258 257
293 292 291 291 289 286 283 283 281 275 269 266 264 263 268 271 262 253 260 260 257 259
Wind_Speed_850mb
18 26 30 36 41 37 36 35 38 42 43 50 50 46 46 43 39 42 47 51 57 65
28 30 32 35 35 37 35 34 38 41 46 49 50 49 44 42 40 38 42 49 56 65
31 30 29 29 31 33 37 40 44 49 50 51 55 54 51 47 41 42 46 49 54 59
31 29 29 34 37 44 49 52 53 50 53 54 53 53 50 51 53 54 51 51 57 58
37 41 46 46 49 54 57 57 60 56 51 50 51 52 54 53 49 48 49 50 52 59
37 39 44 50 53 58 60 64 63 59 57 51 52 52 53 55 52 52 50 49 55 49
46 51 52 59 62 65 65 63 63 67 67 59 63 59 54 54 55 54 57 57 55 58
52 55 62 67 70 71 71 69 70 71 65 69 73 65 56 58 61 62 61 60 55 60
59 66 69 71 74 73 75 75 75 75 74 71 69 63 57 59 65 65 64 61 53 57
72 75 79 82 81 83 85 81 78 78 78 78 73 74 66 70 67 66 62 55 49 45
76 80 81 78 78 78 74 81 85 86 84 83 82 77 75 65 63 62 64 54 53 56
64 68 69 69 69 70 75 80 82 81 82 82 81 78 74 73 71 63 63 55 58 62
93 99 104 104 104 103 100 97 90 88 83 82 82 76 72 73 77 70 61 50 49 57
111 110 109 104 93 85 81 80 78 77 84 88 84 82 85 86 70 68 55 56 45 46
Wind_Direction_850mb
278 283 284 293 299 295 295 302 308 307 306 314 318 316 307 302 304 303 298 296 288 282
283 278 275 280 282 284 284 287 293 294 300 308 313 313 315 314 306 299 294 293 285 282
264 261 262 267 271 276 284 293 300 303 306 309 310 304 298 300 312 312 294 290 292 283
255 261 269 275 281 288 294 298 304 303 307 308 311 307 307 304 298 300 306 290 286 289
276 282 282 283 288 290 292 292 296 299 305 307 308 310 311 310 315 308 308 302 295 284
288 282 278 283 287 290 292 293 293 292 298 303 312 310 311 310 311 316 307 311 303 296
275 273 276 283 283 286 288 289 289 291 293 297 304 304 303 304 307 305 307 294 301 300
275 279 281 278 281 282 280 278 281 285 283 287 295 295 292 294 295 298 299 300 291 298
280 282 282 282 281 278 275 278 280 278 282 282 282 280 289 290 287 289 291 295 286 291
286 286 285 284 282 279 280 281 277 276 279 281 280 278 290 294 277 281 281 285 281 287
289 283 280 280 278 277 279 279 277 277 277 278 278 276 283 295 277 278 272 274 274 274
287 286 286 285 284 282 278 273 269 273 276 274 272 272 275 288 289 274 271 264 262 271
293 293 291 289 287 284 280 277 275 273 266 263 266 266 270 275 286 265 268 258 258 257
293 292 291 291 289 286 283 283 281 275 269 266 264 263 268 271 262 253 260 260 257 259